GFSNE_925_thetae_000.txt.gz
Theta_e
294 294 294 294 293 293 293 293 294 298 297 298 298 298 297 296 296 295 296 296 296 294 294 295 296 297 295 296 296 297 297 296 298 298 299 301 303 306
292 292 292 293 293 293 293 292 292 293 294 293 293 294 294 294 294 293 293 294 294 293 292 293 294 294 294 294 295 295 296 297 295 295 295 297 299 301
292 292 291 291 291 291 291 291 291 291 293 292 292 292 292 293 293 293 293 293 293 294 293 293 292 291 292 292 294 295 295 298 295 295 295 294 295 298
291 291 290 289 289 289 290 290 290 290 291 292 291 291 292 292 292 292 293 293 293 293 292 293 293 292 290 290 290 292 295 295 298 296 295 295 294 295
290 289 289 289 289 289 289 289 289 289 289 289 290 290 290 291 291 291 292 292 292 292 292 291 292 291 292 292 291 291 291 294 295 296 297 296 294 294
288 287 287 287 287 287 287 287 287 287 287 288 288 289 289 289 289 290 290 290 291 291 291 290 290 291 291 291 291 290 290 291 293 294 295 296 295 294
287 287 287 286 285 285 284 285 285 286 287 288 289 289 289 289 289 290 290 290 290 290 291 291 291 291 290 290 289 290 290 289 290 291 293 294 296 295
286 286 286 285 284 284 283 283 283 284 286 287 287 287 288 288 288 288 288 288 289 289 289 290 290 291 291 291 291 292 292 290 290 291 292 294 297 295
285 285 284 284 283 284 284 284 283 283 283 283 284 285 286 286 287 287 287 287 287 287 288 289 289 290 290 291 290 290 290 291 290 290 292 294 295 295
284 283 283 283 283 283 283 283 283 283 284 284 284 284 284 285 285 286 286 287 287 287 287 288 288 288 288 289 289 289 290 290 292 292 293 294 295 295
282 282 282 282 282 282 283 283 283 284 284 284 283 283 283 283 284 284 286 286 287 287 286 287 287 287 287 288 288 288 289 289 289 288 288 291 292 292
282 282 282 282 282 282 282 283 283 283 284 284 284 285 284 284 284 284 285 286 286 287 286 286 287 287 288 288 288 288 289 288 286 286 287 288 290 290
281 282 283 283 282 281 280 281 281 281 281 282 283 283 284 285 286 286 286 286 286 286 286 286 287 287 287 288 289 289 289 289 289 289 287 287 288 289
281 282 282 280 279 279 279 279 279 279 281 282 283 283 284 285 286 286 286 286 286 286 286 286 287 287 287 288 289 288 289 289 289 288 290 290 289 290
281 280 279 278 278 279 279 278 278 281 281 282 283 284 285 286 286 287 286 286 286 286 286 286 286 286 286 288 289 289 289 290 289 289 289 291 291 291
279 280 278 277 278 279 279 279 280 280 280 281 282 283 284 285 286 286 286 287 287 286 286 285 285 286 286 287 287 288 289 290 289 289 289 289 289 289
278 278 278 278 279 279 279 279 279 279 280 280 281 282 284 285 286 286 287 287 287 287 287 286 285 285 286 286 287 288 289 289 289 290 288 289 289 289
277 277 276 276 278 278 278 278 278 278 279 280 281 282 282 284 285 286 285 286 287 288 287 288 287 286 286 286 285 287 287 288 289 289 289 288 289 290
276 275 275 276 277 277 277 277 277 278 278 279 280 280 281 283 285 286 286 286 286 286 287 287 287 287 289 289 286 284 286 287 288 289 288 287 287 289
274 274 274 275 275 275 276 276 276 277 277 278 279 279 280 281 283 284 285 286 287 287 287 286 286 287 288 289 290 283 281 282 286 286 288 287 286 285
273 273 274 274 274 274 275 275 276 277 277 278 278 279 279 280 281 282 283 283 284 286 286 285 283 282 283 284 286 284 281 280 282 284 285 286 286 285
272 272 273 273 273 274 274 275 276 276 276 277 278 278 279 280 280 281 281 282 282 283 283 282 282 282 283 284 286 283 282 281 279 280 281 281 283 287
271 271 272 272 272 273 273 274 275 275 275 276 277 278 279 279 280 280 280 281 281 282 282 282 282 282 282 282 283 283 281 281 282 282 280 279 280 280

GFSNE_925_thetae_003.txt.gz
Theta_e
296 296 295 295 295 295 294 295 295 297 298 299 298 300 300 300 299 298 298 298 296 296 295 295 296 297 296 298 299 301 301 298 297 299 302 303 304 303
295 294 294 294 294 294 294 295 295 295 296 295 295 295 295 296 297 297 297 296 296 296 294 294 292 293 294 293 294 294 295 296 297 297 296 295 296 297
294 294 293 293 293 292 292 292 292 293 294 293 293 294 294 294 295 295 295 295 295 294 294 293 292 291 292 291 293 294 295 295 295 298 296 294 295 294
292 292 292 292 292 291 291 291 291 291 291 293 292 293 293 293 294 294 294 295 294 294 294 294 293 292 291 291 291 291 291 293 295 296 298 296 295 295
290 290 290 290 289 290 290 290 290 290 290 291 291 291 292 292 292 293 293 293 293 293 293 292 293 293 293 293 292 291 291 291 292 295 296 297 298 297
289 289 289 289 288 288 289 289 289 289 289 289 290 290 290 290 291 292 292 292 293 292 292 292 292 292 292 291 291 291 291 291 291 292 293 295 296 296
287 288 288 288 288 287 286 286 286 286 287 288 289 290 291 291 291 291 292 292 292 292 292 292 293 292 291 290 290 291 291 291 291 291 291 292 294 295
285 286 286 287 287 286 285 285 284 284 285 286 287 289 289 289 289 290 290 290 291 290 290 291 291 291 292 292 293 292 291 291 290 289 289 290 291 292
284 285 286 286 285 285 285 285 285 284 284 284 284 284 285 286 287 288 288 289 289 289 289 290 290 291 291 291 291 291 290 291 292 292 291 291 290 291
283 284 284 284 284 284 284 284 284 283 284 284 284 284 284 285 285 286 287 287 288 288 288 289 289 290 289 289 289 289 289 289 290 290 290 290 290 291
282 282 283 283 282 282 282 283 283 283 284 284 284 284 284 284 284 285 286 287 288 287 287 288 288 289 289 289 288 288 288 288 289 289 290 291 290 290
281 281 282 282 282 282 283 283 284 284 284 284 284 285 285 285 285 284 284 285 286 287 287 288 288 288 289 289 288 288 289 288 288 288 289 289 288 289
281 281 282 280 280 280 280 281 281 281 281 281 282 283 283 284 285 286 285 285 286 287 287 287 288 288 288 288 288 289 289 289 290 289 289 287 287 288
280 281 281 280 279 279 279 280 279 279 280 282 283 284 284 284 285 285 286 287 287 287 286 286 287 287 288 289 289 289 289 289 289 290 289 290 289 287
280 279 280 279 279 279 280 279 279 281 282 282 283 284 285 286 286 286 286 287 287 287 287 286 286 286 288 288 288 288 289 290 290 289 289 289 289 289
278 279 279 278 279 280 280 281 281 281 281 282 283 283 284 285 286 286 287 287 287 287 287 286 286 286 287 287 287 288 288 289 290 289 289 289 290 291
277 278 278 278 279 280 280 280 280 280 281 281 282 283 283 284 285 287 287 287 288 288 288 287 286 286 286 286 287 287 288 288 289 289 289 289 289 289
278 277 277 277 278 279 279 279 279 279 279 280 281 282 283 283 285 287 287 287 287 288 288 288 288 287 286 286 285 286 287 288 288 288 289 289 289 289
276 276 276 276 277 277 277 277 278 279 279 279 280 281 282 282 283 285 286 287 287 287 288 288 288 288 288 288 286 285 286 287 287 288 288 290 289 288
275 275 276 275 276 276 276 277 278 278 279 279 280 280 281 282 283 284 285 285 286 287 288 288 287 287 288 288 288 282 283 283 285 286 287 288 287 287
274 274 275 275 275 275 276 276 278 278 278 278 279 280 280 282 282 282 283 284 284 285 286 285 283 283 284 285 286 285 281 281 281 282 284 287 287 286
273 274 274 274 274 274 275 275 277 277 277 277 278 279 280 281 281 282 282 282 283 283 284 284 283 283 284 285 286 284 284 282 280 280 281 281 282 286
273 273 273 274 274 274 274 275 275 276 276 276 277 278 279 280 281 281 281 282 282 282 282 283 284 283 283 283 283 284 282 282 283 283 281 279 280 280

GFSNE_925_thetae_006.txt.gz
Theta_e
295 296 296 296 295 295 295 295 295 295 294 294 297 296 297 297 298 299 299 299 298 297 296 296 296 297 296 296 299 302 304 305 305 304 302 303 304 304
295 295 295 295 294 294 294 294 295 295 295 295 295 294 294 295 297 297 298 298 297 296 296 296 295 295 295 295 293 294 295 295 296 297 297 297 297 297
293 293 293 293 293 293 293 292 292 293 293 293 293 293 293 293 295 295 295 295 296 295 295 294 294 294 294 293 293 293 293 293 294 295 297 297 296 295
292 291 292 292 291 290 290 291 291 291 292 291 291 292 291 291 292 292 293 295 295 296 296 295 294 294 293 293 292 291 291 291 291 292 295 297 298 296
288 288 289 290 290 289 289 289 289 290 289 289 290 290 290 290 290 291 291 292 293 294 293 294 293 293 293 292 292 292 292 291 291 290 291 293 295 297
286 286 286 287 288 289 289 289 288 287 286 287 287 288 289 289 290 290 290 290 291 291 292 292 293 293 292 292 292 292 291 291 291 291 291 291 292 294
284 284 285 286 286 287 287 287 287 286 286 286 286 286 288 289 290 290 290 291 291 292 292 292 292 292 293 292 292 291 291 291 291 290 291 290 290 291
283 283 283 284 285 286 286 286 285 285 285 284 284 285 285 286 287 287 288 289 287 289 290 290 290 291 291 291 292 293 292 291 292 291 291 291 290 290
281 282 283 284 284 285 285 285 285 285 285 284 284 284 284 284 284 285 286 287 288 288 288 289 289 289 289 290 291 290 290 291 290 291 291 291 291 290
281 280 281 282 283 283 283 283 283 283 284 284 284 284 284 284 284 285 286 286 286 286 287 288 288 288 288 289 289 289 288 289 289 290 290 290 291 291
280 281 281 282 281 282 282 283 283 283 283 283 284 284 284 284 284 284 284 285 285 286 287 287 287 287 288 288 287 288 287 286 287 287 288 289 289 290
280 280 280 281 281 281 281 283 283 283 283 283 282 282 282 283 283 285 285 284 284 284 285 286 287 287 287 288 288 287 287 288 288 288 288 287 288 289
279 279 280 281 280 280 280 280 280 281 280 280 280 281 281 282 283 284 285 285 284 284 284 286 286 287 287 288 288 288 288 289 289 289 289 289 288 288
278 279 279 280 280 279 280 280 280 279 279 279 281 282 283 283 284 284 285 285 286 285 285 286 287 286 286 286 287 288 288 289 289 289 289 289 290 290
277 277 278 279 279 279 280 280 280 280 280 282 282 283 283 283 284 284 285 285 286 286 287 287 287 286 286 286 287 288 288 288 288 289 290 289 289 289
276 278 278 277 278 279 280 280 280 280 280 281 281 282 283 283 284 285 286 287 287 286 286 286 286 286 286 286 287 287 287 288 288 288 289 288 288 290
276 277 277 276 277 279 278 279 279 279 279 280 280 282 282 283 283 284 285 287 287 287 287 287 287 286 286 286 286 286 286 287 288 287 287 289 289 288
276 276 276 276 277 277 278 278 278 279 279 279 280 281 281 282 283 284 285 287 287 287 287 288 288 287 286 286 285 285 286 287 287 287 288 288 289 289
275 276 276 276 276 276 277 277 278 278 278 279 280 280 280 281 283 283 284 284 285 286 288 288 288 287 286 286 286 285 285 286 287 287 287 288 287 288
274 275 275 275 275 275 276 276 277 278 277 277 279 279 280 281 282 283 282 283 284 285 286 284 284 283 285 285 286 283 284 284 285 284 285 286 286 287
274 274 274 275 275 275 275 275 276 277 277 276 277 279 280 281 281 281 282 282 283 284 284 283 283 283 284 284 284 282 282 281 281 282 282 283 286 286
273 273 274 274 274 273 274 274 275 275 275 275 276 276 278 280 280 281 281 282 282 282 283 283 283 283 283 283 283 284 282 281 281 280 281 281 282 282
273 272 273 273 272 272 272 272 273 273 273 273 274 275 277 278 279 280 280 280 280 279 280 281 283 283 283 282 283 283 282 282 282 281 281 280 280 280

GFSNE_925_thetae_009.txt.gz
Theta_e
293 294 295 295 294 294 294 295 294 294 293 294 294 293 293 294 296 296 297 297 297 298 297 297 297 297 297 297 298 301 304 307 308 308 308 307 306 306
292 292 292 293 293 292 292 291 292 293 293 293 293 293 293 292 294 295 295 295 296 298 296 295 295 296 296 296 296 295 295 297 299 299 299 298 297 297
290 289 288 288 290 291 291 291 291 291 291 291 290 290 291 291 291 292 293 294 295 296 296 296 295 295 294 294 294 294 294 293 293 294 295 296 297 299
287 286 286 286 286 287 288 289 289 289 289 289 288 288 288 289 289 289 290 291 292 294 295 295 295 295 294 294 293 293 292 291 291 291 292 292 294 297
285 285 285 284 284 285 287 287 288 288 288 287 286 287 287 287 288 288 289 290 290 291 292 294 294 294 294 294 293 293 292 292 292 292 291 291 291 292
284 284 283 283 283 284 285 286 287 288 287 286 285 285 285 286 287 288 288 289 290 290 290 291 291 292 293 293 293 293 292 292 291 291 291 291 291 291
282 281 281 282 283 284 285 286 286 286 286 285 285 284 284 285 285 286 286 286 287 289 290 290 290 291 291 292 293 293 292 292 292 292 291 291 291 291
281 280 280 281 282 282 283 284 285 285 285 284 284 283 284 284 284 284 284 285 285 288 288 288 289 289 289 290 290 291 292 292 292 292 292 291 291 291
281 280 280 280 280 281 282 283 282 283 284 284 285 284 284 283 283 283 283 284 285 286 286 287 288 288 288 289 289 290 291 291 290 290 291 291 291 291
280 280 280 280 281 281 281 282 282 282 282 282 283 283 283 284 284 284 284 285 285 285 285 285 286 286 287 287 288 289 289 288 288 288 288 287 289 290
279 279 279 279 280 281 281 281 282 282 282 283 283 284 284 284 284 284 284 284 283 283 284 285 286 286 287 287 287 287 287 287 287 287 287 287 286 286
278 278 279 280 280 280 280 280 280 280 280 281 282 282 281 281 281 281 283 284 284 283 284 283 284 285 286 286 286 287 287 287 287 287 288 288 288 287
277 278 278 278 279 280 280 280 279 279 280 280 279 279 280 281 281 282 282 283 284 284 284 284 285 285 286 286 286 286 286 287 287 288 288 288 289 289
277 277 277 279 279 279 279 280 280 280 279 279 279 280 281 283 283 284 284 284 284 284 285 285 284 285 285 286 285 286 286 287 288 288 288 289 289 289
276 277 278 277 278 279 279 279 280 280 280 281 281 281 282 282 283 284 285 285 285 285 285 286 285 286 286 286 286 285 286 287 287 287 288 288 289 289
276 277 276 276 277 278 277 278 278 278 279 279 280 281 281 282 282 283 284 285 286 286 286 286 286 287 286 286 286 285 286 286 287 287 287 287 287 288
276 276 276 276 276 277 277 277 278 278 278 279 280 280 281 281 282 283 284 286 287 286 287 287 287 287 286 286 285 286 286 286 286 286 287 287 287 287
275 275 275 275 275 276 276 276 276 277 277 278 279 280 280 281 282 283 283 284 284 285 287 288 288 287 286 286 286 286 286 285 285 287 287 287 286 286
274 274 275 275 275 275 275 275 276 277 276 277 277 278 280 281 282 282 282 283 283 284 284 284 285 286 286 285 285 285 285 285 285 286 286 286 286 286
273 274 274 274 274 274 274 274 275 275 275 276 276 277 278 280 281 281 281 282 282 283 283 283 283 283 283 281 284 283 283 284 284 285 284 284 285 286
273 273 273 273 273 273 273 273 273 273 273 274 274 275 277 278 279 280 281 281 281 281 282 282 283 283 283 284 282 282 282 282 281 281 282 282 283 284
273 272 272 273 272 272 272 272 272 271 271 272 273 274 275 276 277 279 279 280 279 279 279 281 282 283 282 282 282 282 282 281 281 281 280 280 281 280
273 273 272 272 271 271 271 271 271 270 269 270 272 273 274 275 276 277 278 278 278 278 278 280 282 282 283 282 282 282 281 282 281 282 281 280 280 280

GFSNE_925_thetae_012.txt.gz
Theta_e
291 292 291 290 290 291 292 291 290 291 292 293 292 292 291 291 291 294 294 293 295 296 297 298 298 299 297 298 299 300 303 306 308 309 309 308 308 307
290 288 287 286 286 285 288 290 291 290 291 290 290 290 289 289 290 290 293 293 293 293 295 297 298 298 297 297 296 296 296 298 300 300 301 301 300 299
287 286 286 286 285 285 284 284 287 290 291 290 290 289 289 289 289 289 289 292 291 292 293 294 295 295 295 295 295 295 294 294 294 294 294 295 296 298
286 285 285 285 284 284 283 284 286 286 288 288 287 287 287 287 287 287 288 288 291 290 292 292 294 294 294 294 294 293 293 292 292 292 292 292 292 293
285 284 283 282 281 282 282 283 284 285 286 287 286 286 286 286 285 285 287 288 289 290 290 292 291 294 295 294 294 293 293 293 292 292 292 291 291 291
283 282 281 280 280 281 282 283 284 285 285 286 286 285 285 285 284 285 286 286 287 288 289 290 291 291 292 293 293 293 293 292 292 292 292 291 291 291
283 282 281 280 280 281 282 282 284 285 285 285 284 284 284 284 284 284 284 283 284 286 288 289 289 290 291 291 292 292 293 293 292 292 292 292 291 290
282 281 280 280 280 280 281 282 282 283 283 284 284 283 283 283 284 283 283 283 283 284 286 286 287 288 288 289 290 290 291 292 292 292 292 292 291 292
281 280 279 279 279 280 280 281 281 282 282 282 283 284 284 284 283 283 283 283 283 284 285 286 285 285 286 287 288 289 290 291 291 290 290 290 290 290
279 278 279 279 279 279 281 281 281 281 282 282 282 282 282 283 283 283 283 283 283 284 284 284 285 285 285 285 286 287 288 289 289 289 288 287 287 287
278 278 278 278 279 280 280 280 280 280 280 281 283 283 283 283 283 284 283 284 283 283 283 283 283 284 284 285 286 286 286 286 286 287 287 286 287 287
277 277 277 278 279 280 281 280 279 279 279 279 280 280 280 281 280 281 281 282 283 283 283 283 283 283 284 284 284 285 286 287 287 287 287 287 287 288
276 277 277 278 279 279 280 279 279 280 280 280 279 279 280 280 281 282 281 281 282 282 283 283 284 284 284 285 285 286 285 285 286 287 287 287 288 288
276 277 278 278 278 278 279 279 280 280 280 280 280 280 281 282 282 283 283 283 283 283 283 283 284 284 284 284 285 285 285 285 286 287 288 288 288 288
276 277 276 277 277 277 277 278 278 278 279 279 280 280 281 282 282 283 284 285 285 285 284 284 284 285 284 284 285 285 285 285 286 287 287 287 287 287
275 276 275 275 276 276 276 277 277 278 278 278 279 280 280 281 282 283 284 285 285 285 286 285 285 285 285 285 285 285 286 285 286 286 287 286 285 286
275 275 275 275 275 275 275 275 276 277 277 278 278 279 280 281 281 282 284 284 285 285 286 287 287 286 285 286 285 285 285 285 285 285 286 286 286 287
274 274 274 274 274 274 274 274 275 276 276 276 277 278 278 280 281 281 282 283 283 283 284 284 286 286 285 286 286 285 285 285 285 285 285 285 286 286
273 273 273 273 273 273 273 273 273 274 274 275 275 276 277 279 280 281 281 282 282 283 282 283 284 285 285 285 284 284 284 284 285 285 286 286 286 285
272 273 273 273 272 272 272 272 272 272 272 273 274 275 276 277 278 279 280 280 281 281 281 283 283 283 282 279 282 283 283 283 283 284 284 284 284 284
273 272 272 272 272 271 271 271 271 270 270 272 273 274 275 275 276 278 279 279 278 279 279 280 282 283 283 283 281 282 282 281 281 281 281 281 282 283
274 273 272 272 271 271 271 271 270 269 269 271 272 273 274 274 275 276 277 278 278 278 278 280 282 282 282 282 281 282 282 281 281 281 280 280 280 278
274 274 273 272 271 271 270 270 269 269 268 269 271 272 273 273 274 274 276 276 276 277 277 278 280 281 282 281 282 282 282 281 281 281 281 281 280 280

GFSNE_925_thetae_015.txt.gz
Theta_e
290 290 290 288 286 286 285 288 290 289 288 290 291 289 289 290 289 289 291 295 294 292 294 296 297 300 298 296 300 303 307 309 309 309 310 309 308 309
289 288 287 286 286 286 285 285 284 289 289 289 290 290 289 289 289 289 289 289 293 292 291 294 295 297 299 297 295 295 298 302 305 306 307 307 305 302
287 286 286 285 285 284 283 283 283 284 286 286 287 288 289 288 288 288 288 288 289 292 291 291 292 294 296 296 297 295 293 293 295 297 298 298 299 299
285 285 284 283 282 281 280 281 282 282 284 284 285 287 288 288 287 287 286 287 288 289 290 290 290 291 292 294 294 294 295 292 292 293 293 293 293 294
285 284 283 282 281 280 280 280 281 282 283 283 284 285 286 286 286 286 285 285 285 288 289 291 290 291 291 293 294 294 293 294 292 291 291 291 291 291
283 283 282 281 280 280 280 280 282 282 283 284 284 284 285 286 285 284 284 284 284 285 287 288 290 291 292 292 293 294 293 292 292 292 291 291 291 291
283 282 281 280 281 280 280 281 281 281 283 283 284 284 284 284 284 284 284 283 283 283 284 287 288 289 290 290 292 292 293 292 292 292 291 291 291 291
282 281 280 279 279 279 280 280 281 281 282 282 282 283 283 283 283 283 283 282 281 283 285 285 285 286 287 288 290 290 291 292 292 292 292 292 292 291
279 278 278 278 278 278 279 280 280 281 281 282 282 282 282 282 283 283 283 282 282 283 283 284 285 285 285 285 286 288 290 291 291 291 291 290 290 290
277 277 278 278 278 279 279 279 280 280 280 280 281 282 282 282 282 283 283 283 283 283 283 283 284 283 284 285 285 286 288 290 290 290 289 289 289 288
277 277 278 278 278 280 280 280 281 280 280 280 280 281 281 283 283 283 283 282 283 283 283 283 283 283 283 283 284 286 286 286 287 288 288 287 287 287
277 276 277 278 279 279 280 280 280 279 280 280 280 279 279 280 281 281 281 281 281 281 282 283 283 283 283 284 284 284 285 285 286 286 286 286 286 287
277 276 277 278 278 279 279 279 279 280 280 280 280 279 280 280 280 280 280 280 280 281 281 283 283 283 283 284 284 285 285 285 285 286 287 287 287 287
276 276 276 277 277 277 277 278 278 278 279 279 280 280 281 281 282 282 282 282 282 282 282 282 282 283 283 283 284 284 285 285 285 285 287 287 288 288
275 276 276 276 276 276 276 277 277 277 278 278 279 279 280 281 281 282 283 283 284 284 284 283 283 283 284 284 284 285 285 285 285 285 286 287 287 287
274 274 274 274 274 274 275 276 276 276 276 277 278 279 280 280 281 282 283 283 284 285 285 285 284 284 283 283 283 284 285 285 286 285 285 286 286 286
274 274 274 273 273 274 274 274 274 275 275 275 276 277 278 280 281 282 283 283 284 284 284 285 285 284 284 284 285 284 284 285 285 285 285 285 286 285
273 273 273 273 272 273 272 273 273 273 273 274 275 275 276 278 280 281 282 282 282 282 283 283 284 284 284 285 285 285 285 284 284 284 285 284 285 285
272 272 272 272 272 272 272 271 271 270 272 273 274 274 275 277 278 279 280 281 281 282 282 282 283 285 286 285 284 284 284 283 283 284 283 283 285 285
273 272 272 272 271 271 271 271 270 269 270 272 273 274 274 275 276 277 278 278 278 279 280 282 282 282 281 278 281 282 282 282 283 283 284 284 284 284
273 273 272 271 271 271 271 270 270 269 269 271 272 273 273 274 274 275 276 277 277 278 278 280 281 282 282 282 280 282 282 281 281 281 281 281 281 281
274 274 273 272 271 271 270 270 269 269 269 269 271 272 272 273 273 274 275 275 276 276 277 279 281 282 282 282 281 281 281 281 281 280 280 280 280 277
275 274 274 273 272 271 270 270 270 269 268 268 270 271 272 271 273 273 274 274 274 275 276 278 280 280 281 281 280 282 282 281 281 281 281 281 279 279

GFSNE_925_thetae_018.txt.gz
Theta_e
288 289 289 289 287 286 285 285 286 286 285 286 287 288 288 288 289 289 289 289 289 293 293 290 292 295 299 299 298 304 307 307 308 309 310 311 312 312
288 288 287 286 285 285 284 283 283 283 284 284 285 286 287 289 289 289 288 288 288 288 292 291 290 293 296 298 297 299 303 306 307 308 309 309 308 308
287 286 286 285 284 283 282 281 280 281 282 282 283 284 284 284 288 288 287 287 287 288 290 290 290 290 293 296 298 295 297 299 302 305 306 307 306 305
285 285 285 284 283 282 281 280 280 280 281 281 282 283 283 284 287 287 287 287 286 286 287 289 290 290 291 294 294 296 295 293 294 295 299 302 303 302
285 284 283 283 282 281 280 280 280 280 280 282 283 283 283 284 285 286 286 285 285 284 285 288 290 290 289 292 292 292 294 293 291 291 292 292 294 296
284 283 283 282 281 281 280 280 280 280 280 281 281 283 283 284 284 284 285 284 284 284 284 286 288 290 290 290 291 292 293 293 293 291 291 291 291 291
283 282 281 280 281 280 280 280 280 280 281 281 281 282 283 283 284 284 284 284 283 283 283 283 287 289 290 290 290 292 293 292 293 293 292 292 291 290
280 278 277 278 278 279 279 279 280 280 281 281 281 281 281 282 283 282 282 282 283 283 284 284 284 285 286 287 290 291 292 292 291 291 291 291 291 291
278 277 277 277 277 278 278 279 280 280 280 280 280 281 281 281 282 282 282 282 282 282 282 283 283 284 285 286 286 289 291 292 292 292 292 292 291 291
277 277 277 277 277 278 279 279 279 279 280 280 280 280 280 281 281 281 281 282 282 282 282 283 283 283 283 283 285 287 290 290 291 291 290 290 290 290
277 276 277 277 277 279 279 280 279 280 280 280 280 280 280 280 281 282 281 282 282 282 282 283 283 283 283 283 283 285 286 289 289 289 289 289 288 288
277 276 276 277 278 279 279 278 279 279 279 280 280 280 280 279 279 280 281 281 281 281 282 282 283 283 282 283 283 283 285 286 287 288 288 288 287 287
276 276 276 277 277 278 278 277 278 278 278 278 279 280 280 280 280 280 280 279 280 280 281 282 283 283 283 283 284 284 283 284 285 285 286 286 286 286
275 275 276 276 276 276 276 277 277 277 277 277 278 279 279 280 281 281 282 282 281 281 280 281 281 282 283 282 283 284 284 285 285 285 285 287 287 287
275 275 275 274 274 274 275 275 275 275 276 276 277 278 279 280 280 281 282 282 283 283 283 282 281 282 282 282 283 284 284 285 285 285 285 286 287 287
274 274 273 273 273 273 273 274 273 274 274 275 275 276 278 279 281 281 282 283 283 283 284 284 283 282 282 282 283 283 283 284 285 285 285 286 286 286
273 273 273 272 272 272 272 272 272 272 273 274 274 275 276 278 280 281 281 282 283 283 284 284 284 283 283 283 284 284 284 283 284 285 285 285 285 286
272 272 272 272 271 272 271 271 270 270 271 273 273 274 275 276 278 279 280 280 281 281 282 282 284 283 284 284 284 285 284 284 284 284 284 284 284 285
273 272 272 272 271 271 271 271 270 269 270 272 273 273 274 275 276 277 278 278 279 280 280 282 282 285 286 286 283 284 284 283 283 283 283 283 283 284
274 273 272 271 271 271 271 270 270 269 269 271 272 272 273 274 274 275 276 276 277 277 278 280 281 281 282 283 282 282 282 281 282 283 283 283 283 283
275 274 273 272 271 271 270 270 269 269 268 269 271 272 272 272 273 274 275 275 276 276 276 277 279 281 282 281 281 281 282 281 281 281 281 281 281 281
276 275 274 273 272 271 271 270 270 269 269 269 270 271 271 271 272 272 273 274 274 274 275 277 279 281 281 281 280 280 281 281 280 280 280 280 280 281
277 276 275 274 273 272 271 270 270 270 269 268 268 270 271 271 271 272 273 273 273 273 274 276 278 279 280 280 280 280 280 280 280 281 281 280 280 279

GFSNE_925_thetae_021.txt.gz
Theta_e
290 290 290 289 289 288 287 287 287 288 289 287 286 286 286 286 287 288 289 290 288 288 289 290 292 290 290 294 298 300 302 306 306 308 310 310 312 312
290 290 289 288 287 287 286 286 285 285 287 285 284 284 284 284 285 286 287 289 288 287 288 289 291 289 289 291 294 298 299 302 306 307 308 309 311 313
289 288 287 286 286 286 285 284 283 283 284 283 283 282 283 283 284 285 285 287 288 288 287 289 289 289 289 290 293 297 298 299 303 306 307 309 311 310
287 286 286 285 285 284 284 283 283 282 282 282 282 282 283 284 284 284 285 287 288 288 286 285 287 289 290 290 291 295 296 296 298 302 306 308 308 307
286 285 285 284 284 283 282 282 282 281 281 281 282 282 282 282 284 285 285 286 287 286 285 285 285 288 290 290 290 293 296 295 293 294 301 304 304 304
285 284 283 282 282 281 281 281 281 281 281 281 281 281 282 282 283 284 285 286 286 286 285 284 284 288 290 290 290 292 293 294 292 291 294 299 302 303
282 281 280 279 279 279 280 280 280 280 280 281 281 281 281 282 282 283 284 284 286 285 285 285 286 288 289 289 290 291 293 293 293 292 291 292 292 293
280 280 279 278 279 279 278 279 279 280 281 281 281 283 283 282 282 282 284 283 286 285 285 285 285 286 287 287 289 290 291 293 292 292 291 292 291 290
279 279 279 278 278 278 279 279 280 280 280 280 281 281 281 281 281 282 283 283 283 284 284 284 285 285 285 286 286 288 290 291 292 292 292 291 291 291
278 278 278 278 278 278 280 280 280 280 280 281 281 281 281 281 281 282 282 282 283 283 283 284 284 284 285 285 285 286 288 291 291 292 292 291 291 291
278 278 278 278 278 278 279 279 279 279 280 279 280 281 281 281 281 281 282 283 283 283 283 283 283 284 285 285 285 285 287 290 291 291 292 291 290 290
279 278 277 277 277 278 278 278 278 279 278 279 280 280 281 281 280 280 281 282 283 284 283 283 284 284 285 285 285 285 286 287 290 290 290 290 289 289
277 277 277 276 276 276 276 277 278 277 278 278 279 280 280 281 282 282 281 281 282 282 283 282 283 284 284 285 286 286 285 286 287 288 289 289 288 288
277 276 276 275 275 275 276 276 275 276 277 278 279 279 280 280 281 282 282 282 282 282 282 281 282 283 283 284 285 285 286 286 286 287 287 286 286 286
276 275 274 274 274 274 274 274 274 275 276 277 278 278 279 279 280 282 282 282 283 282 282 282 282 283 283 284 284 285 286 286 286 287 286 286 288 288
275 274 273 273 273 274 274 274 273 273 274 275 276 277 278 279 281 281 283 283 284 284 284 283 283 282 283 283 283 284 285 287 286 286 285 285 287 288
274 274 274 273 273 274 274 273 272 272 273 274 275 276 277 278 280 281 281 283 284 284 285 284 284 283 283 284 284 284 285 285 285 286 285 286 286 288
275 274 273 273 273 273 273 273 272 271 271 273 274 275 276 277 278 280 280 281 282 283 283 283 284 284 284 283 284 286 285 285 285 285 285 286 286 286
276 275 274 273 273 273 272 272 272 271 270 272 273 274 274 276 277 278 279 280 280 281 282 282 283 286 287 288 284 284 286 285 285 284 285 284 285 285
276 275 275 274 273 273 272 272 271 271 270 270 272 272 272 274 276 276 277 277 278 279 280 281 282 282 284 285 286 282 283 283 283 283 284 283 284 284
277 276 275 274 274 273 272 271 270 271 269 269 270 271 271 272 274 275 275 275 276 277 278 279 280 280 280 281 283 283 281 281 281 283 283 284 284 284
278 277 276 275 274 273 272 271 271 271 271 270 270 270 271 271 272 273 274 275 276 276 276 277 279 280 282 283 283 282 282 281 280 280 280 281 283 285
278 277 277 276 275 274 273 272 271 271 270 269 269 270 270 271 271 272 273 274 274 274 275 277 278 279 281 281 281 282 281 281 282 282 281 280 280 279

GFSNE_925_thetae_024.txt.gz
Theta_e
293 292 291 291 290 290 289 289 289 292 291 288 288 287 287 287 286 286 286 287 288 289 289 289 289 289 290 289 289 290 294 299 300 303 307 310 311 313
292 291 291 290 290 289 289 288 288 288 291 287 287 286 286 286 285 285 286 286 286 287 287 288 288 290 290 289 289 289 291 296 298 300 305 307 309 310
291 291 291 290 289 288 288 287 287 287 287 286 286 285 285 285 285 285 286 286 287 287 288 288 287 287 288 288 289 289 290 293 297 298 302 306 308 309
291 290 290 289 288 287 287 286 286 285 285 285 284 284 284 284 284 285 285 286 287 287 289 288 287 286 286 288 289 289 289 292 296 297 300 304 307 307
290 289 288 287 286 285 285 285 284 283 284 284 284 283 283 283 284 284 285 286 286 287 287 287 286 285 285 287 289 290 290 292 295 295 295 300 306 308
288 287 285 284 284 283 282 283 283 283 283 282 282 283 283 283 283 284 285 285 286 287 287 287 286 286 285 286 289 289 290 291 293 294 292 298 303 307
285 284 283 282 280 280 280 281 281 281 282 282 283 283 283 283 284 284 284 284 285 285 287 287 287 287 288 289 289 290 290 291 292 294 292 293 300 298
284 283 283 282 281 280 280 280 279 280 281 282 282 283 283 283 283 283 283 284 286 285 287 287 287 287 287 288 289 289 290 290 292 294 291 291 291 292
283 282 282 281 281 280 280 280 281 281 281 281 281 283 283 283 283 283 283 283 284 285 285 286 286 286 286 287 287 287 287 289 291 294 291 291 291 290
282 282 282 281 280 279 279 280 280 281 280 281 281 281 281 281 282 282 282 283 283 284 284 285 285 285 286 286 286 286 286 288 290 291 292 292 291 291
282 281 280 279 279 278 278 279 279 280 280 280 279 280 280 281 281 281 282 282 284 284 284 284 285 284 285 286 287 286 285 287 290 290 291 292 291 291
282 281 279 278 277 277 277 278 279 279 279 279 280 280 281 282 282 282 282 282 283 284 285 284 285 285 286 286 287 287 287 286 289 290 290 291 291 291
281 281 279 277 276 276 276 277 278 277 278 279 280 280 281 282 282 283 283 283 283 283 283 284 284 285 286 286 287 287 287 288 287 289 290 290 290 290
280 280 278 276 276 275 276 275 275 276 278 279 280 280 281 281 282 282 283 283 283 283 283 284 284 284 285 285 287 287 287 287 288 289 290 290 289 289
279 278 276 275 275 276 276 275 276 276 277 278 279 279 280 281 282 283 284 284 284 284 284 284 284 284 285 285 286 286 287 287 287 288 288 289 289 289
280 278 277 275 276 276 277 277 276 275 276 277 278 279 279 280 282 282 283 285 286 286 285 284 284 284 285 285 285 286 287 288 287 287 288 288 288 289
277 278 278 278 278 278 277 277 276 275 275 276 277 278 279 279 280 282 282 284 286 286 286 286 285 284 285 286 285 285 286 286 287 287 287 287 288 288
278 279 279 279 278 278 277 277 277 276 274 275 276 277 278 278 279 280 281 282 283 284 285 285 286 285 285 284 285 286 286 286 286 286 286 287 287 288
279 281 280 279 279 278 277 277 276 275 274 274 275 276 276 277 279 279 280 280 281 282 283 284 285 286 288 288 285 284 286 287 286 287 287 286 286 287
279 280 280 279 279 278 277 276 276 275 275 274 274 274 275 276 277 278 278 279 279 280 282 283 283 283 284 286 287 284 284 286 286 286 286 285 285 285
281 281 280 280 279 278 277 276 275 275 274 274 274 274 274 274 275 276 277 277 278 279 280 281 281 280 282 283 286 285 282 283 283 284 285 286 286 286
282 281 281 280 279 279 278 277 276 276 275 274 274 274 274 274 274 275 276 277 277 278 278 279 280 282 283 284 285 284 284 282 281 281 282 283 284 287
281 281 281 280 279 279 278 277 277 276 275 274 274 273 273 274 274 274 275 275 276 276 277 279 280 281 282 282 282 284 283 283 283 283 281 281 280 280

GFSNE_925_thetae_027.txt.gz
Theta_e
296 296 294 294 293 292 292 291 291 293 292 290 290 289 289 288 288 288 287 287 287 287 286 286 288 290 290 292 293 292 292 293 294 296 301 301 303 308
296 294 293 293 293 292 291 290 289 290 292 289 289 288 287 287 287 287 287 287 287 287 287 287 287 288 289 291 291 289 289 290 292 294 298 299 299 304
294 293 293 292 292 291 290 289 289 289 290 289 288 287 286 286 286 286 286 286 286 287 287 288 287 287 288 288 287 287 288 289 289 291 295 297 298 301
293 292 292 291 290 289 288 288 287 287 287 287 286 286 285 285 285 285 285 286 286 287 287 287 288 288 287 287 287 286 287 288 289 290 293 295 296 299
292 291 290 289 288 287 286 286 285 285 285 285 285 285 284 284 285 285 285 285 286 286 287 288 287 288 288 286 286 286 287 289 290 290 293 295 294 298
290 289 287 286 286 284 283 283 283 283 283 283 283 284 284 284 285 285 285 285 285 285 285 286 288 288 287 286 286 286 286 289 290 291 292 294 293 299
288 287 286 285 283 282 281 282 282 282 282 282 283 283 284 284 284 284 284 284 285 285 286 287 288 289 288 287 287 288 290 290 290 290 293 293 292 299
287 286 285 284 284 282 282 281 281 280 281 282 283 283 282 283 284 284 284 284 285 284 285 287 286 288 288 288 289 290 289 288 288 290 292 291 291 294
286 285 285 284 283 283 282 281 281 281 281 282 282 283 283 282 282 283 283 284 284 284 285 285 286 287 287 287 287 287 286 286 287 289 292 291 291 292
285 285 284 283 282 280 279 280 280 281 281 281 281 281 281 281 281 282 282 283 283 283 284 285 285 286 286 287 287 287 287 286 286 288 291 291 290 290
285 284 283 282 281 279 278 279 279 280 281 280 280 280 280 280 281 281 283 283 284 284 284 285 286 286 286 286 286 286 287 286 285 288 290 291 291 290
284 283 283 280 278 277 277 278 278 280 279 278 279 280 281 282 282 283 283 284 284 284 284 286 286 286 286 287 287 287 288 288 285 288 290 291 291 292
283 283 283 281 278 277 277 277 278 277 277 279 280 281 282 282 282 283 283 284 285 284 284 284 285 285 286 286 288 288 288 289 288 288 289 290 291 292
282 282 282 280 277 277 277 277 276 277 279 279 280 281 281 281 282 282 284 284 284 284 284 284 285 285 285 286 286 288 288 288 288 288 289 289 290 291
281 281 279 278 277 278 278 277 277 279 278 278 279 280 280 281 281 282 283 284 285 285 285 284 284 285 285 285 286 287 287 288 288 289 290 290 289 289
282 282 280 279 279 279 279 280 279 279 277 278 279 279 280 280 281 281 283 283 285 287 286 285 285 285 285 286 286 287 287 288 288 288 289 289 289 290
281 280 281 282 281 281 281 280 280 279 278 277 278 278 279 279 280 281 282 283 284 285 286 286 286 285 285 285 286 286 286 287 288 288 288 288 288 289
280 281 282 282 282 281 281 280 280 279 278 277 277 278 278 278 279 280 281 282 283 283 284 285 286 286 285 285 285 287 286 287 287 287 287 288 289 289
280 281 282 282 282 281 281 280 279 279 277 278 277 278 277 277 278 279 280 280 281 281 283 284 285 284 287 287 285 284 286 286 287 287 287 287 287 288
281 282 282 282 282 281 281 280 279 278 278 277 277 277 277 277 277 278 278 279 279 280 281 282 283 282 283 284 287 283 283 287 287 287 287 287 286 286
283 283 283 283 282 281 281 280 279 278 278 277 277 277 277 277 277 277 278 278 278 280 280 281 281 281 283 284 286 285 283 283 284 285 286 287 287 286
283 283 283 283 283 282 281 280 279 279 278 278 277 277 277 277 277 277 276 277 278 278 278 279 281 282 284 285 286 285 284 282 282 283 283 283 284 288
283 283 283 282 283 282 281 280 279 279 278 278 277 277 276 276 277 277 277 276 277 277 277 278 280 282 284 283 283 285 284 284 283 283 281 281 280 281

GFSNE_925_thetae_030.txt.gz
Theta_e
297 296 296 296 295 294 293 292 292 290 289 290 290 289 289 288 287 287 287 287 287 287 287 287 287 288 288 288 289 290 292 293 293 293 294 294 296 300
296 296 295 294 293 293 292 292 291 290 289 289 289 288 288 286 286 286 286 286 286 286 286 286 287 287 288 288 288 289 291 291 291 292 292 293 294 298
294 294 293 292 292 291 291 289 289 288 287 287 287 287 286 286 285 285 285 285 285 285 286 286 286 287 287 287 288 289 288 289 290 291 291 292 293 295
293 293 292 291 290 289 288 287 286 285 285 285 285 285 285 284 285 285 285 285 285 285 285 286 286 287 287 288 288 287 287 287 286 287 289 289 291 294
292 291 290 289 287 287 286 284 284 284 284 283 283 283 283 283 284 284 284 285 285 285 285 285 286 286 287 288 288 288 287 286 286 288 288 288 291 293
290 290 288 287 286 285 284 283 282 282 282 282 282 282 282 283 284 284 284 284 284 285 285 285 285 286 287 288 288 287 286 286 286 288 289 289 291 293
288 287 287 286 285 284 283 282 282 281 281 281 281 282 282 282 282 284 284 284 283 284 284 285 285 285 286 286 288 287 286 287 287 289 289 290 292 292
287 286 286 285 284 284 283 282 281 281 281 281 281 282 282 283 283 282 282 282 283 283 284 284 284 285 285 287 288 288 288 289 287 287 287 289 292 291
286 286 285 285 284 283 282 281 280 280 281 281 282 282 282 281 281 280 281 281 282 282 283 283 283 285 285 286 287 287 287 286 286 286 286 289 291 291
286 285 285 284 283 282 280 279 279 279 280 280 280 280 280 280 280 281 281 281 282 283 284 283 284 285 285 285 285 285 286 286 287 286 286 290 290 292
285 285 284 283 282 281 279 277 278 278 279 279 278 279 280 281 281 282 282 282 282 283 284 284 284 285 286 285 286 286 286 286 287 286 285 290 290 291
285 284 283 282 281 280 278 277 277 278 278 277 278 280 280 281 282 282 283 283 284 284 284 284 284 285 285 286 286 287 287 287 287 286 286 289 290 290
283 283 283 282 281 280 277 277 277 278 277 278 279 279 281 281 281 281 282 283 284 284 284 284 284 284 285 285 285 287 287 288 288 288 288 289 290 290
281 282 282 282 280 278 278 278 278 278 278 278 278 279 280 280 280 281 281 282 283 284 284 285 284 284 285 285 285 286 287 288 289 288 289 289 289 290
282 281 281 281 280 280 280 279 279 279 279 278 278 279 279 279 280 281 281 281 282 284 286 285 285 284 285 285 285 286 286 287 288 287 288 289 289 289
282 282 281 280 281 281 281 281 280 280 279 279 277 278 278 278 279 280 280 282 282 283 284 286 285 285 285 285 285 286 286 287 288 287 289 289 289 289
283 282 281 281 282 282 281 281 280 280 279 278 277 278 278 278 278 279 280 281 281 282 283 284 285 286 285 285 285 285 286 287 287 288 288 288 289 289
281 281 281 282 283 282 281 281 280 280 279 278 278 278 278 278 277 278 279 280 280 281 281 282 284 284 285 285 285 285 286 286 287 287 288 288 289 289
281 280 280 282 283 282 281 281 280 280 279 278 278 277 278 277 277 278 278 279 279 279 280 282 282 282 283 284 283 284 284 285 287 287 286 287 287 287
281 281 281 282 282 283 282 282 281 280 278 278 277 277 278 277 277 278 277 277 278 278 280 280 281 281 281 283 284 283 283 285 287 287 287 287 286 286
282 282 281 282 282 283 282 281 281 279 278 278 277 278 277 277 277 277 277 276 277 278 278 278 279 281 282 283 284 284 282 283 285 286 286 286 286 285
283 283 283 283 283 283 282 282 281 280 279 279 278 278 277 277 276 277 277 277 276 277 277 277 278 281 283 284 283 284 283 282 282 283 284 284 284 285
283 283 283 283 282 283 283 281 281 280 279 279 278 277 277 276 276 277 277 277 276 276 275 275 278 280 281 283 283 284 283 283 282 282 281 281 281 282

GFSNE_925_thetae_033.txt.gz
Theta_e
295 295 295 296 296 294 294 293 292 290 289 289 289 288 287 287 287 286 286 285 286 286 285 286 286 286 287 288 288 289 290 290 290 291 294 294 294 294
293 293 294 294 293 292 291 291 290 289 287 286 286 285 286 285 285 285 284 285 284 284 285 285 286 286 286 287 288 288 289 289 290 291 292 292 293 293
293 293 292 292 291 290 288 287 286 285 284 284 284 284 283 283 283 283 283 284 284 284 285 285 285 285 286 286 287 288 288 289 289 290 290 290 291 292
292 292 291 290 289 287 287 286 285 283 283 282 282 282 282 282 282 282 283 283 284 284 285 284 285 285 285 285 286 286 287 288 288 288 288 289 290 290
291 290 290 289 287 287 286 285 283 282 282 282 281 281 281 281 282 282 282 283 283 284 283 284 284 284 285 285 286 286 287 288 288 288 286 285 287 288
289 288 288 287 286 285 284 283 282 282 282 281 280 280 281 281 282 282 283 282 281 281 282 282 283 284 283 284 284 285 286 288 288 287 286 286 286 288
288 287 286 285 285 285 283 283 282 281 281 281 280 280 281 281 281 282 281 280 280 280 281 283 282 282 282 283 284 285 287 288 287 287 287 287 288 288
286 286 286 285 285 284 283 282 281 280 280 280 280 280 281 281 281 280 280 279 280 280 282 281 282 283 283 284 285 285 288 288 288 288 287 286 286 287
286 286 286 285 284 283 283 282 281 279 279 279 279 279 279 279 279 280 280 280 280 281 281 281 282 283 284 284 285 285 286 287 286 286 286 286 285 288
285 286 285 284 284 283 283 281 280 277 277 279 279 278 278 279 280 281 281 281 281 282 282 282 283 283 284 284 285 285 286 286 286 286 286 286 285 290
285 285 285 284 283 282 281 281 277 276 277 278 278 279 279 280 281 282 282 282 282 282 283 283 284 284 284 284 286 285 285 287 286 286 286 286 286 290
284 284 284 283 282 282 281 279 276 277 278 278 278 278 278 280 280 280 281 281 281 282 283 284 284 284 283 284 285 285 285 287 287 287 287 286 288 289
284 284 283 282 282 281 280 278 278 278 278 278 278 277 278 278 279 279 280 281 281 281 282 284 284 284 284 284 284 284 286 286 287 287 288 287 289 289
284 282 281 282 282 281 280 279 279 279 278 279 278 278 278 278 278 279 279 279 281 281 283 284 284 284 284 284 284 284 285 286 287 288 287 288 289 290
284 282 281 281 281 280 280 280 280 279 279 279 279 277 277 278 278 278 278 280 280 281 281 284 285 285 285 284 284 285 285 286 287 287 288 287 288 289
284 282 282 282 281 281 282 281 281 280 280 279 278 278 278 278 277 277 278 279 280 280 280 282 283 284 285 285 285 285 284 286 286 288 288 288 289 288
284 282 282 282 281 281 282 281 281 280 280 279 278 278 278 278 277 277 278 278 279 279 280 281 282 282 285 285 284 284 285 286 287 287 288 287 288 289
283 282 282 281 281 281 282 282 281 281 280 279 278 278 277 277 277 277 277 277 278 278 279 280 281 281 282 284 284 284 285 285 287 287 288 288 288 289
282 282 281 281 280 280 282 282 281 281 279 279 278 278 277 277 277 277 277 276 276 277 278 279 279 280 281 282 283 283 284 284 286 286 286 287 287 287
282 282 281 281 280 280 282 282 281 280 280 279 278 277 277 277 276 276 277 277 276 277 277 277 277 278 280 281 282 283 283 284 286 287 287 286 285 286
282 282 281 281 281 281 281 282 282 281 281 279 278 278 277 277 277 276 277 277 276 276 276 276 276 279 281 283 283 283 282 283 285 287 286 286 285 285
283 283 282 282 282 282 283 283 282 281 281 279 279 278 277 277 276 275 277 277 277 276 275 275 277 279 281 283 283 283 282 282 282 283 284 284 285 284
284 283 283 282 283 283 283 282 282 282 281 280 279 278 277 277 276 276 276 277 276 275 275 274 276 278 279 280 280 282 283 282 282 281 281 281 283 283

GFSNE_925_thetae_039.txt.gz
Theta_e
294 293 292 292 292 293 294 293 291 292 289 289 288 286 285 283 282 281 282 281 283 283 284 284 285 285 286 286 287 287 288 288 289 289 290 291 292 292
293 293 292 292 291 291 291 291 291 289 286 287 285 284 282 282 280 281 281 281 281 282 283 284 284 285 285 286 286 286 287 287 288 288 289 289 290 291
293 293 292 292 291 290 290 289 287 286 284 284 283 282 282 281 280 280 280 281 281 281 283 283 283 284 284 284 285 286 286 286 286 287 287 288 289 290
293 292 292 291 290 290 288 287 286 284 283 282 282 282 281 280 280 280 280 281 281 280 281 281 281 281 282 283 284 285 285 286 286 287 287 287 288 289
293 292 291 290 289 289 287 286 284 283 282 281 281 281 280 279 279 280 280 280 280 280 280 280 281 281 282 283 284 284 284 284 285 286 286 285 286 288
292 291 290 289 288 287 285 285 283 283 282 281 281 280 279 279 279 280 279 279 279 279 280 281 281 281 282 282 282 283 283 284 285 286 286 286 287 286
291 290 289 287 286 285 285 284 283 283 282 280 279 278 278 278 279 278 278 278 279 280 280 281 281 281 282 282 283 283 283 283 285 286 286 287 288 287
291 289 287 286 286 285 285 284 283 282 281 279 278 278 277 278 278 278 278 278 279 280 280 280 280 281 282 283 283 283 283 284 285 286 286 286 287 288
290 289 287 286 285 285 284 283 282 281 280 279 276 277 278 278 278 278 279 279 280 280 280 280 280 281 282 282 282 283 284 285 285 285 285 285 285 286
289 288 286 286 285 284 283 282 282 281 281 278 277 278 278 278 279 279 279 279 279 279 279 280 280 281 281 283 283 283 284 284 285 285 286 286 286 285
288 288 286 286 285 284 283 282 281 281 280 278 278 278 278 278 278 278 278 279 278 278 279 280 280 280 281 283 283 284 283 284 284 284 285 286 286 285
289 288 286 285 284 284 283 282 281 281 279 278 279 278 279 278 278 277 277 277 278 278 280 279 280 281 282 283 283 283 283 283 284 284 285 286 287 286
289 288 287 286 284 283 282 281 281 280 279 279 279 279 279 279 278 277 277 277 277 278 278 279 279 280 283 283 283 283 283 284 283 284 285 286 287 286
288 288 287 286 284 283 282 282 281 280 280 280 280 279 279 279 278 277 277 277 277 277 278 279 279 280 281 281 282 284 283 284 284 285 286 286 287 287
288 288 287 286 284 283 282 282 281 281 280 280 280 280 279 278 277 277 276 277 276 277 277 278 279 279 280 281 281 284 283 284 285 286 286 287 286 286
288 288 287 285 284 283 282 281 281 281 281 281 281 280 279 278 277 277 276 277 276 276 277 278 278 278 279 280 281 283 283 283 285 285 286 287 287 287
288 287 285 284 283 282 282 281 282 281 281 281 281 280 279 278 277 276 276 276 276 276 276 277 276 277 279 281 282 283 283 282 284 285 286 287 286 286
287 285 283 283 283 283 282 282 282 281 280 281 281 280 279 278 277 276 276 276 276 276 275 276 276 277 278 280 281 282 282 282 283 285 286 285 286 286
286 285 283 283 283 283 282 282 282 281 280 281 282 280 279 278 276 276 276 275 276 276 276 275 275 276 277 276 280 282 280 281 282 284 284 285 284 284
286 285 283 283 283 283 282 282 282 281 280 281 281 280 279 278 276 277 276 275 276 276 276 275 275 275 276 275 278 279 281 281 283 284 284 285 285 285
286 285 284 283 282 283 283 282 282 281 280 280 281 280 279 278 277 277 276 275 276 276 275 274 275 277 279 280 279 281 281 281 282 283 284 284 284 284
285 284 284 284 282 282 283 282 282 281 281 280 280 280 280 278 278 277 276 275 275 276 275 275 276 277 278 280 280 281 282 281 281 282 281 281 281 282
285 285 285 284 283 282 283 283 282 282 281 281 281 281 280 279 278 277 276 275 275 275 275 274 275 276 276 278 279 279 281 281 281 281 281 281 282 282

GFSNE_925_thetae_042.txt.gz
Theta_e
295 294 293 293 292 292 292 292 291 291 289 290 290 288 287 285 283 282 280 280 281 283 283 283 284 284 285 286 286 287 288 288 288 290 290 290 290 291
294 294 293 292 292 291 291 291 291 290 288 288 287 285 284 282 282 280 279 280 280 281 282 283 283 283 284 284 285 285 286 286 287 288 288 289 290 290
294 293 293 292 292 291 291 290 290 289 286 285 284 283 282 282 281 279 279 280 280 280 281 282 282 282 282 282 283 284 284 285 286 287 287 287 287 288
294 293 293 292 292 291 291 290 288 286 284 283 283 282 282 281 279 278 279 280 280 279 280 281 281 281 282 282 282 283 283 284 285 286 286 286 286 287
294 293 292 292 291 290 289 288 287 285 284 282 282 281 281 280 278 278 279 279 278 279 279 280 281 281 282 282 283 283 283 284 284 284 285 285 286 286
294 293 292 292 291 289 288 287 286 284 283 282 281 281 280 279 277 279 278 278 278 279 280 280 280 280 280 281 282 282 283 284 284 284 285 285 285 285
293 292 292 291 289 287 286 285 285 284 282 282 281 279 278 277 277 278 277 278 278 279 280 280 280 280 280 281 282 282 283 283 284 284 285 285 285 286
293 292 291 289 288 286 285 285 285 284 282 281 280 279 278 277 278 277 277 278 279 279 280 279 279 279 280 281 282 282 283 284 284 285 285 286 285 285
292 291 290 289 287 286 285 285 284 283 282 281 280 279 277 277 278 278 278 278 279 279 279 279 279 279 280 281 282 282 283 283 284 285 285 285 285 285
291 290 289 288 286 286 285 284 283 282 281 280 280 278 278 278 279 278 278 278 278 278 278 278 279 280 280 281 283 283 283 283 284 283 283 284 284 284
290 289 288 287 289 286 285 284 283 282 281 281 279 278 279 279 279 278 277 277 277 277 277 278 279 279 280 281 283 283 283 283 283 283 283 284 284 285
290 289 288 288 288 286 284 284 283 282 281 280 278 278 278 278 278 278 277 277 277 277 278 278 278 279 280 281 282 282 282 283 283 283 283 283 284 285
289 289 288 288 288 286 284 283 283 282 281 280 279 279 279 279 279 278 277 277 277 276 277 277 278 278 279 280 281 281 282 283 283 284 284 285 286 286
289 289 289 288 288 286 285 283 282 281 281 280 279 280 280 280 279 278 277 276 276 276 276 277 277 278 278 279 280 281 281 282 283 284 285 285 286 286
288 288 289 288 287 286 285 283 282 281 281 281 280 280 280 280 279 278 277 276 276 276 276 276 277 277 278 279 279 280 281 283 283 284 284 285 286 286
288 288 288 288 287 286 285 283 282 282 282 281 280 280 280 280 279 278 277 276 276 276 276 276 276 276 277 277 278 280 282 283 282 283 284 286 286 285
287 287 285 285 284 283 283 283 283 281 281 281 280 280 281 280 279 278 276 276 275 275 276 276 275 276 277 278 278 281 282 282 281 282 284 285 285 285
286 285 284 284 283 282 282 282 282 282 282 282 281 280 281 280 279 278 276 276 275 275 275 276 275 275 277 279 280 281 281 280 281 282 284 284 284 284
286 286 285 284 283 282 282 281 281 284 283 282 281 280 280 280 278 278 276 276 276 275 275 275 274 275 277 277 278 280 280 280 281 283 284 284 284 284
287 286 286 285 284 283 282 282 282 283 282 282 280 280 281 280 278 278 276 276 275 275 275 275 274 274 276 277 277 278 280 280 281 282 284 284 284 284
286 286 285 285 284 283 282 282 281 282 282 281 280 280 281 280 279 278 277 276 275 275 275 275 275 276 277 279 278 279 281 281 280 281 281 281 282 283
285 285 285 284 283 283 283 282 281 281 282 281 280 280 280 280 279 279 277 276 275 275 275 275 275 276 276 279 279 280 281 281 281 281 280 281 282 283
284 285 284 284 283 283 283 281 281 281 282 281 280 280 280 279 279 279 278 277 275 275 275 275 274 275 275 276 277 278 279 280 281 281 280 281 281 281

GFSNE_925_thetae_045.txt.gz
Theta_e
295 295 295 295 294 294 294 293 293 293 293 291 291 290 288 286 285 284 284 282 280 280 281 282 283 284 284 285 285 286 286 287 288 288 289 289 291 291
295 295 295 294 294 294 294 293 292 292 292 290 289 288 287 285 284 283 282 280 281 280 280 282 282 283 283 284 284 284 285 285 286 287 287 288 289 290
295 295 295 294 294 293 293 292 292 291 291 290 288 286 285 284 284 283 281 281 281 281 281 281 282 282 282 282 282 283 283 284 284 285 286 287 288 289
295 295 294 294 293 293 293 292 291 290 289 289 287 285 284 284 283 282 280 280 281 281 280 281 281 281 282 282 283 283 283 284 284 284 285 286 286 286
294 294 294 294 293 293 292 291 290 288 287 286 286 285 284 283 282 281 280 281 280 280 280 280 281 281 282 282 282 283 283 284 284 284 284 284 285 285
294 293 293 293 293 293 292 290 289 287 286 285 285 285 284 283 281 280 281 281 280 280 281 280 280 281 281 281 281 281 283 283 284 284 284 284 284 285
294 293 293 293 293 292 290 289 288 287 286 286 285 285 284 283 281 280 280 280 280 281 281 281 281 281 282 282 282 282 283 283 284 284 285 285 285 285
293 293 293 293 292 291 290 288 286 286 286 285 285 284 283 283 280 280 280 280 281 281 281 281 281 281 282 282 282 282 282 283 283 284 285 285 286 285
292 292 292 292 291 289 287 286 286 285 285 285 284 284 283 281 280 280 280 280 280 280 280 280 280 281 282 282 282 282 283 283 283 284 284 284 284 284
291 291 291 290 290 289 287 287 286 286 284 283 283 282 282 279 279 280 280 280 280 280 280 280 280 281 281 281 282 283 283 282 283 284 284 284 283 283
291 291 290 289 289 289 287 287 285 285 283 283 282 281 280 279 279 280 280 280 280 280 279 280 280 280 280 281 283 283 282 282 283 283 283 283 283 283
290 290 290 289 288 287 288 286 285 285 284 282 281 281 279 280 279 279 280 280 280 280 279 279 279 279 280 281 282 282 283 283 283 284 284 284 284 285
290 289 289 289 289 288 286 286 285 285 283 282 282 281 280 280 280 280 280 279 279 279 279 278 279 279 279 280 280 281 282 283 284 284 285 285 285 285
289 289 288 288 288 288 288 287 286 285 283 282 282 281 281 281 281 280 280 279 279 278 278 278 278 278 279 279 280 281 282 282 284 284 285 285 285 286
288 288 288 288 288 288 288 287 286 283 283 283 283 282 281 281 281 280 279 279 278 278 277 278 277 278 278 279 280 281 281 283 284 284 285 285 285 285
287 288 287 286 287 286 286 285 285 284 283 283 283 282 282 281 280 280 280 280 279 278 278 277 277 277 278 278 279 280 282 284 283 284 283 284 285 285
286 286 286 286 285 285 284 284 285 284 283 283 283 282 281 281 281 280 280 279 278 278 278 278 278 277 278 278 280 281 283 283 283 283 284 285 285 284
284 286 286 287 286 286 285 285 284 283 283 282 282 282 282 281 281 281 279 279 279 278 278 278 278 278 280 281 280 281 282 283 283 284 285 286 286 284
283 284 286 287 286 285 284 283 284 284 283 282 282 282 282 281 281 281 280 279 279 278 278 278 278 278 281 282 281 280 281 282 283 284 285 285 285 284
283 285 286 287 286 285 284 284 283 283 282 281 282 282 281 281 281 281 280 280 279 278 278 278 278 277 279 280 280 280 280 280 282 283 283 284 285 284
275 281 285 286 286 285 285 284 283 283 282 281 281 281 280 280 281 281 280 278 278 278 278 278 277 275 277 278 280 282 282 281 280 281 281 283 284 285
273 274 275 283 285 285 284 284 283 282 282 281 281 280 280 280 281 280 280 280 278 278 278 277 277 277 278 280 281 281 282 282 281 280 281 281 282 284
270 271 272 273 276 283 283 283 283 282 281 280 280 280 279 279 280 281 280 279 279 278 277 277 277 276 277 278 279 280 281 281 282 282 282 281 281 281

GFSNE_925_thetae_048.txt.gz
Theta_e
299 299 299 299 298 297 296 296 296 298 297 294 293 293 292 291 290 288 287 286 285 282 283 283 283 284 284 285 285 286 286 286 287 288 289 289 290 290
297 299 299 298 297 297 296 296 295 295 296 294 293 292 291 290 288 287 286 285 284 283 282 282 283 283 283 283 284 284 284 284 285 285 286 287 288 289
298 298 298 297 296 296 296 296 295 294 294 293 292 291 291 289 288 287 286 285 284 283 283 282 282 282 282 282 283 283 283 284 284 285 285 286 286 287
298 298 298 297 296 296 296 295 294 294 293 293 292 291 290 289 288 286 286 284 283 284 283 282 281 281 282 282 283 283 283 284 284 285 285 285 285 286
298 297 297 297 296 296 296 295 295 294 293 292 291 290 289 289 287 286 285 284 284 283 282 282 282 282 282 282 282 283 283 283 284 284 285 285 285 285
296 296 296 297 296 296 296 295 294 293 292 291 290 290 289 288 287 286 285 284 284 284 283 283 283 283 283 283 283 283 283 283 284 284 284 284 284 285
297 297 296 296 295 295 295 295 294 293 292 291 290 289 289 288 287 286 284 284 284 284 284 284 284 284 284 284 284 283 284 283 283 284 284 285 285 285
295 295 295 294 294 293 293 293 293 293 292 291 290 289 289 288 286 286 284 284 285 284 284 283 283 284 284 284 284 283 282 283 284 284 285 285 285 285
294 294 294 293 293 293 293 292 290 289 288 289 289 289 288 287 286 285 283 284 284 283 282 283 283 283 283 284 284 283 283 284 284 284 284 285 285 285
293 293 293 292 293 293 292 292 291 290 289 288 287 287 286 286 285 283 283 283 283 283 283 283 283 283 283 283 283 283 283 283 283 283 283 284 284 284
293 292 292 292 292 292 291 291 290 290 290 288 287 286 285 284 283 282 282 283 284 283 283 283 282 282 282 283 284 284 283 283 283 283 283 284 284 284
292 292 292 291 290 290 289 289 290 290 289 288 285 284 283 283 282 281 282 282 283 284 283 282 282 282 283 282 283 282 283 283 283 284 284 284 285 285
291 291 291 291 290 290 289 288 289 289 289 288 288 286 285 284 283 282 282 282 283 283 283 281 281 281 282 282 282 282 283 283 284 284 285 285 285 285
289 290 291 291 290 289 289 288 288 287 287 287 286 286 286 284 284 283 283 283 282 282 282 281 280 281 281 281 282 282 282 283 284 285 285 286 286 286
285 287 287 287 287 288 288 287 287 287 287 286 286 286 286 285 284 284 283 283 282 282 281 280 280 280 280 281 281 281 282 283 284 286 285 285 285 286
283 284 284 285 286 286 288 288 287 287 287 287 286 286 286 285 284 283 283 283 282 282 282 280 280 280 280 280 281 282 283 284 284 285 284 284 286 286
279 281 283 284 286 286 287 287 287 287 286 286 286 286 286 285 284 283 283 283 282 282 282 281 281 280 280 280 281 282 283 284 285 284 285 286 287 285
282 283 284 284 285 285 287 288 287 286 287 286 286 286 286 285 284 283 283 282 282 283 282 281 281 281 281 283 283 283 283 283 284 285 286 286 287 286
280 281 282 284 286 286 287 287 287 286 285 285 285 286 285 285 284 284 283 282 282 282 282 281 281 281 283 283 284 282 282 282 283 284 285 285 286 286
278 278 279 280 281 281 286 288 287 286 284 284 285 285 284 284 284 283 283 283 282 282 282 281 281 281 281 282 281 281 281 281 282 283 283 283 286 286
275 275 276 276 278 278 282 287 286 285 285 284 284 284 284 284 284 283 283 283 282 282 282 281 281 279 278 279 281 283 284 283 281 281 282 283 284 286
273 273 273 274 275 276 276 281 286 285 285 284 284 283 284 284 284 283 283 283 281 281 282 281 280 279 280 281 282 283 283 283 283 282 281 281 282 284
271 271 272 272 273 273 273 275 278 285 285 284 284 284 283 283 283 283 283 282 282 281 281 280 280 279 280 280 280 281 282 282 283 283 283 281 281 281

GFSNE_925_thetae_051.txt.gz
Theta_e
300 300 300 299 301 301 300 299 299 300 299 298 297 295 295 294 293 292 291 290 288 287 286 284 284 284 285 285 285 285 286 286 286 287 287 288 288 289
298 298 298 300 301 300 299 299 298 298 299 296 296 295 294 293 293 291 290 289 288 287 286 284 283 284 284 284 284 284 284 285 285 285 286 287 287 287
298 299 299 300 300 299 298 298 298 297 297 296 295 295 294 293 293 292 290 290 288 287 285 284 283 283 282 283 283 283 283 284 284 285 285 286 286 287
298 298 299 300 300 299 298 298 298 297 296 296 295 294 293 292 292 291 290 289 288 287 285 285 284 283 282 283 283 283 283 284 284 284 284 285 285 286
298 298 300 299 299 299 298 298 298 297 296 296 296 294 293 292 291 291 290 289 288 286 285 285 284 284 283 283 283 283 283 284 284 284 284 284 285 285
298 299 298 298 298 298 298 298 297 297 296 295 295 294 293 292 291 291 290 289 288 286 286 285 285 285 285 284 284 284 284 284 284 284 284 284 284 285
298 297 298 298 298 297 297 297 297 296 296 295 294 294 293 292 291 290 290 288 288 286 286 286 286 285 285 285 285 285 285 284 284 284 284 285 285 285
297 298 298 296 296 295 295 295 294 295 296 295 294 294 293 291 291 290 289 288 288 285 286 286 285 285 285 285 285 284 284 283 283 284 285 285 285 285
296 296 296 295 294 294 294 294 294 294 293 292 292 293 292 291 290 289 288 287 287 285 285 285 285 285 285 285 285 284 283 283 283 284 284 284 283 283
294 295 295 295 294 294 293 294 294 294 293 292 290 290 290 290 290 288 287 286 285 284 285 286 285 285 284 284 284 284 284 284 283 283 283 283 283 284
293 294 294 293 293 293 293 293 293 293 292 291 291 290 290 289 287 286 286 285 286 284 285 285 285 284 284 283 284 284 284 283 283 283 284 284 284 284
292 292 292 292 292 292 292 292 292 291 291 290 291 290 289 288 287 285 285 285 284 285 284 285 285 284 284 283 284 283 284 283 284 284 284 284 285 285
288 289 289 290 290 290 291 290 291 291 290 290 290 290 289 287 286 285 284 283 284 284 284 284 284 283 283 283 283 283 283 283 284 284 285 285 286 285
284 284 285 285 284 285 285 287 287 289 288 289 289 289 289 289 287 286 285 284 284 284 284 284 283 283 282 283 283 283 283 283 284 284 285 286 286 285
281 281 281 281 283 285 286 287 287 287 288 288 288 289 288 288 288 286 285 285 285 284 284 283 283 282 282 282 282 283 283 283 284 285 285 285 285 286
280 280 280 282 283 284 285 286 286 287 287 288 288 289 288 288 287 286 286 285 284 284 283 283 283 282 281 281 282 282 282 283 284 285 285 286 286 287
278 280 283 285 285 286 286 286 286 287 287 288 288 288 288 288 287 286 285 285 284 284 284 284 283 282 282 282 282 283 283 284 284 285 285 286 287 286
279 281 281 281 282 282 284 284 284 287 287 288 288 287 288 287 287 286 285 285 284 284 284 284 284 283 283 283 283 283 284 284 283 283 284 285 286 286
279 279 279 279 279 279 280 281 281 281 288 288 287 287 287 287 287 286 285 285 284 284 284 284 284 283 283 284 284 283 283 283 282 283 283 284 284 286
278 277 277 277 277 277 277 278 279 278 287 287 286 286 286 287 287 286 286 285 284 283 284 283 283 283 283 283 282 282 282 282 283 283 283 282 284 286
276 275 275 275 275 275 275 276 275 277 285 286 286 285 285 286 286 286 286 285 285 284 284 283 283 281 281 280 281 282 284 284 283 282 282 282 284 286
274 273 273 273 273 274 274 274 274 274 277 286 285 285 285 285 285 286 285 285 284 284 283 283 283 281 281 281 282 283 283 284 283 284 282 281 282 283
272 272 272 272 272 272 273 272 273 272 275 277 282 286 285 285 285 285 284 284 284 283 282 282 282 282 281 281 281 281 282 283 283 283 283 283 281 281

GFSNE_925_thetae_057.txt.gz
Theta_e
309 309 307 305 303 304 304 303 301 300 296 300 299 299 298 297 296 296 295 294 294 292 292 291 289 289 288 288 287 286 286 286 286 286 287 287 287 288
309 306 305 303 303 303 302 302 301 300 298 298 299 298 298 296 295 294 294 294 293 292 291 290 290 289 287 287 286 286 285 285 286 286 286 286 287 287
304 303 303 302 302 301 300 301 301 300 298 298 298 298 298 296 296 294 294 294 293 292 292 291 289 288 288 287 286 285 284 284 285 286 286 286 286 286
303 301 301 301 301 300 299 300 301 300 299 297 298 298 297 297 297 296 294 294 293 292 292 291 289 289 288 286 285 285 285 285 285 285 286 286 285 285
302 300 301 300 299 299 299 299 300 299 299 298 297 297 297 297 297 296 295 294 293 292 291 291 290 289 286 286 285 285 285 285 285 285 285 285 285 285
299 300 300 299 299 299 299 299 298 298 298 298 297 297 296 296 296 296 295 294 294 292 291 290 289 287 286 285 286 285 285 285 285 285 285 285 285 285
300 299 299 299 298 298 298 297 298 298 298 297 295 294 293 294 295 295 294 293 292 291 290 289 288 287 286 286 285 285 284 285 284 284 285 285 284 284
299 298 297 297 297 296 296 296 297 297 296 294 293 293 293 293 294 294 293 291 289 291 290 289 288 287 286 285 285 284 285 285 284 283 284 284 284 283
296 295 295 294 293 292 292 292 292 292 292 292 291 292 292 292 293 292 292 291 290 291 289 288 286 285 285 285 285 285 285 284 283 283 284 283 283 283
292 292 292 291 290 289 288 288 287 287 287 288 290 291 291 291 292 291 291 291 291 290 289 285 286 286 285 284 285 285 284 283 283 283 283 283 283 283
291 290 288 285 284 283 281 280 280 280 281 281 283 284 283 286 289 290 289 289 287 288 287 286 285 285 285 284 284 284 283 283 283 283 283 283 283 284
285 283 281 280 280 279 281 282 282 283 284 284 283 283 284 285 285 286 289 288 287 285 286 285 286 285 284 284 284 283 283 282 282 282 282 283 283 284
280 280 280 279 278 280 282 283 283 283 284 284 284 284 284 284 285 286 287 288 288 287 288 286 285 284 284 284 283 283 282 281 282 281 282 282 284 285
279 279 278 278 280 282 281 281 281 280 282 283 283 283 283 284 285 285 287 288 288 288 287 285 285 284 284 283 282 282 282 282 281 281 282 284 284 284
277 277 278 280 281 280 279 279 278 278 279 280 281 281 281 282 285 286 286 287 288 287 286 285 284 284 284 283 282 282 282 281 281 282 282 284 283 284
277 278 279 280 279 278 277 277 277 276 277 277 277 277 278 278 283 286 286 287 286 286 285 284 284 284 284 283 283 283 283 281 282 282 283 282 282 283
278 278 278 278 277 276 276 276 275 275 275 275 275 275 277 277 278 285 287 287 286 285 285 285 285 284 284 283 283 283 283 282 282 283 282 282 282 282
278 278 277 276 275 275 275 274 273 274 273 274 274 274 275 276 277 286 287 287 286 285 284 285 284 284 284 284 283 283 283 282 282 283 282 282 282 282
276 276 275 274 274 274 273 273 272 272 272 272 272 273 274 274 279 286 286 286 285 285 285 285 284 284 282 282 283 283 283 283 283 282 282 282 282 282
275 275 274 273 273 272 272 271 271 271 271 270 271 271 273 273 275 286 286 286 285 284 284 284 284 283 283 280 281 283 283 281 281 281 282 282 282 282
274 273 272 272 271 270 270 270 269 269 269 269 270 270 271 271 273 280 286 286 285 284 284 284 284 283 283 282 280 281 281 281 283 283 283 282 282 282
272 271 271 270 269 269 269 268 268 267 268 268 269 269 270 270 271 273 278 286 285 285 284 284 283 282 281 281 280 280 281 282 282 282 282 283 282 277
270 270 269 269 268 268 268 267 266 267 267 267 267 267 268 269 269 270 274 278 285 285 284 283 283 282 282 281 281 281 281 281 281 282 282 282 283 283

GFSNE_925_thetae_060.txt.gz
Theta_e
316 315 310 310 309 308 306 304 304 303 303 302 301 301 299 299 298 297 297 297 297 296 295 294 293 292 291 290 291 290 288 288 287 287 287 287 288 288
313 309 308 307 305 304 303 303 302 301 302 300 300 300 299 299 298 297 295 295 295 295 294 294 293 292 290 289 289 288 288 287 287 287 287 287 287 287
308 308 307 305 303 303 302 301 300 300 300 300 299 299 298 298 298 297 295 295 294 294 294 293 293 292 290 289 288 287 286 286 286 286 286 286 287 287
307 305 304 302 302 301 301 300 300 300 299 298 298 298 298 298 298 298 297 297 297 296 295 293 293 291 290 289 288 287 286 285 285 285 285 286 287 287
306 304 302 301 301 300 300 299 299 299 299 298 298 298 298 298 297 297 297 296 296 296 296 294 292 292 291 290 288 287 286 285 285 285 285 285 286 286
302 301 300 300 300 299 299 298 297 297 297 297 296 296 296 296 296 295 295 294 294 294 294 294 293 293 290 290 288 286 286 286 285 285 285 285 284 284
299 300 300 299 298 297 297 297 297 296 296 295 294 294 293 293 292 293 293 293 293 293 293 293 290 290 290 288 287 287 286 285 284 285 284 284 283 284
299 299 297 296 296 295 294 292 291 290 290 291 291 291 291 291 291 291 291 290 289 292 291 291 291 290 289 289 287 285 285 284 285 285 284 283 284 284
297 296 294 292 292 291 291 290 289 286 282 282 286 287 288 288 289 289 290 289 290 291 291 290 291 290 290 287 286 285 284 285 285 284 283 283 283 283
293 292 291 289 288 286 285 282 281 281 282 283 283 283 283 283 283 284 285 286 288 289 290 289 290 289 289 286 285 285 284 285 284 283 283 283 283 283
290 288 287 284 282 280 280 281 282 282 283 283 283 284 284 284 284 284 284 285 286 288 288 288 288 287 286 286 286 285 284 284 283 283 282 282 282 283
286 283 281 280 279 279 282 281 281 282 281 281 281 282 282 282 283 283 284 284 285 286 287 286 286 285 285 286 285 284 284 283 283 282 282 282 282 282
281 279 279 278 279 281 281 280 280 279 278 278 279 280 281 281 281 282 283 285 285 285 287 286 286 285 285 283 284 283 283 283 282 281 281 281 282 284
278 278 278 279 281 281 280 279 278 276 276 276 277 277 278 277 278 278 279 282 284 285 286 287 286 285 284 283 283 283 283 283 282 281 281 282 283 284
277 277 278 279 280 278 277 277 276 275 275 275 276 276 275 275 276 277 278 281 284 285 285 286 286 285 284 283 283 283 282 282 282 282 282 282 283 282
277 278 278 278 277 276 276 275 275 274 274 274 274 273 274 274 274 276 276 277 284 286 285 285 286 284 284 283 284 283 283 282 282 282 282 282 282 282
278 278 277 276 275 275 275 274 273 272 273 272 272 272 272 273 273 275 275 277 281 286 285 285 285 284 284 284 283 283 283 282 282 282 282 282 282 282
277 276 275 274 274 273 273 272 272 271 271 271 271 270 271 271 273 273 274 278 286 285 285 285 284 284 284 284 284 283 283 283 283 282 283 282 282 281
275 275 274 273 272 272 272 271 270 270 269 269 269 269 269 270 271 271 273 274 285 286 285 285 284 284 283 281 283 283 283 283 283 283 282 281 281 282
274 274 272 272 271 271 270 269 269 268 267 268 268 268 268 268 270 270 271 272 283 285 284 284 284 284 282 280 282 283 283 283 283 281 282 281 282 282
273 272 271 271 270 269 268 268 268 267 266 267 267 267 267 267 269 270 270 271 275 284 284 283 284 284 284 283 280 282 282 282 281 281 283 283 282 282
271 271 270 269 269 268 267 267 266 266 266 266 266 266 266 266 268 269 269 270 273 278 284 284 284 284 283 282 281 281 281 281 281 282 282 282 282 279
270 270 269 268 267 267 266 266 265 265 265 265 265 265 265 265 267 267 268 269 271 273 282 284 283 283 282 281 282 281 281 281 281 281 282 282 282 282

GFSNE_925_thetae_063.txt.gz
Theta_e
320 318 316 317 315 312 309 308 306 303 303 303 304 304 303 301 299 299 298 298 297 297 297 297 297 296 295 294 293 293 293 292 291 290 289 289 288 289
319 317 316 314 311 308 307 306 303 303 302 302 302 302 302 301 300 299 298 297 297 296 296 297 296 295 294 294 293 292 292 292 291 290 289 288 288 288
315 314 312 309 308 306 304 303 302 301 300 300 300 300 300 300 299 299 298 297 296 296 296 295 295 295 295 293 292 291 290 290 291 289 289 288 288 288
313 310 308 307 305 303 302 301 300 300 299 299 299 299 299 299 299 299 298 298 297 297 297 296 296 296 295 294 293 291 290 291 288 287 287 287 287 287
311 308 306 304 302 301 301 300 299 299 299 298 297 297 297 297 296 296 296 296 295 295 294 294 293 293 293 294 293 292 292 291 289 287 285 285 285 286
307 305 304 302 301 300 300 299 298 297 296 295 294 293 293 293 293 293 293 293 293 292 292 292 292 293 293 293 292 291 292 290 288 286 286 285 285 285
304 302 300 300 299 298 298 296 296 295 294 293 292 292 292 291 291 290 290 290 290 290 291 291 291 291 292 292 292 291 291 290 288 287 286 285 285 284
300 299 299 298 297 296 295 294 291 290 288 286 286 285 285 286 287 286 286 286 287 286 289 289 290 291 291 290 290 290 290 289 287 286 284 284 284 283
299 297 296 293 292 292 291 290 288 285 282 282 282 282 283 283 283 283 283 284 284 283 284 285 287 289 290 290 290 290 289 289 286 284 284 285 283 283
296 293 292 290 289 289 287 284 282 281 282 282 282 283 283 283 283 283 283 283 283 283 284 285 285 287 288 289 290 290 287 285 285 284 285 284 283 283
291 290 289 287 284 281 280 281 281 281 281 280 279 279 279 281 281 282 282 283 283 283 283 284 285 286 287 288 289 288 285 284 284 285 283 283 282 282
287 285 282 281 279 279 281 281 280 280 278 278 277 277 278 278 279 279 280 281 282 283 284 284 284 285 285 286 287 284 285 285 284 283 283 282 281 281
284 281 280 279 279 281 281 280 279 278 276 276 276 276 276 276 276 276 277 278 278 279 281 284 284 285 285 285 284 285 285 284 283 283 282 281 281 281
280 279 278 279 280 281 279 278 277 276 275 274 274 275 275 274 274 275 275 276 276 277 279 281 284 285 284 282 282 283 283 283 283 282 281 281 282 283
278 278 278 279 279 278 277 276 275 274 273 273 273 273 273 273 273 274 274 275 275 276 279 282 284 285 284 283 282 283 283 283 282 282 281 281 282 282
278 278 278 278 277 276 275 275 274 273 272 272 272 272 271 271 272 272 273 273 274 276 281 284 285 285 284 284 283 283 283 283 282 282 282 282 282 282
278 278 277 276 275 274 274 273 272 272 271 271 270 270 270 270 270 271 272 272 273 275 279 283 284 284 285 284 283 283 283 283 282 282 282 282 282 281
278 276 275 274 273 274 273 272 271 271 270 269 269 269 268 268 269 269 271 271 273 273 278 284 283 283 283 283 284 284 284 283 283 283 282 282 282 281
276 274 273 273 272 272 271 271 270 269 268 267 267 267 267 267 267 268 269 270 271 273 274 285 284 283 283 282 283 284 283 283 283 282 283 283 282 281
275 274 272 272 271 270 270 269 268 268 267 266 266 266 266 266 265 266 268 269 270 271 273 283 284 284 282 280 282 283 283 283 283 282 282 281 282 281
273 272 271 271 270 269 268 267 267 266 266 266 266 266 265 265 264 265 266 268 269 271 273 281 283 284 284 283 281 282 283 283 282 282 281 282 282 282
271 271 270 269 268 268 267 266 266 265 265 265 265 265 265 265 264 264 266 266 268 270 271 273 280 283 283 283 281 282 282 281 281 281 282 282 282 276
270 269 269 268 267 266 266 265 265 265 265 264 264 265 265 264 264 264 265 265 267 269 270 273 278 283 283 282 282 281 280 280 281 280 281 282 282 282